| time (UTC) | temp F | wind direction | speed MPH | gust MPH | rain 1hr in | rain 24hr in | rain mn in | humidity % | barometer mb |
| 20260903172503 | 83 | 58 | 2.0 | 8.0 | 0.00 | 0.00 | 0.00 | 73 | 1015.2 |
| 20260903172004 | 83 | 309 | 2.0 | 9.0 | 0.00 | 0.00 | 0.00 | 71 | 1015.3 |
| 20260903171503 | 83 | 57 | 3.0 | 9.0 | 0.00 | 0.00 | 0.00 | 69 | 1015.3 |
| 20260903170504 | 83 | 24 | 3.0 | 10.0 | 0.00 | 0.00 | 0.00 | 69 | 1015.3 |
| 20260903170007 | 83 | 27 | 3.0 | 10.0 | 0.00 | 0.00 | 0.00 | 69 | 1015.3 |
| 20260903165503 | 84 | 265 | 2.0 | 10.0 | 0.00 | 0.00 | 0.00 | 69 | 1015.2 |
| 20260903165004 | 83 | 15 | 2.0 | 9.0 | 0.00 | 0.00 | 0.00 | 69 | 1015.2 |
| 20260903164504 | 83 | 55 | 3.0 | 12.0 | 0.00 | 0.00 | 0.00 | 69 | 1015.2 |
| 20260903164004 | 83 | 44 | 3.0 | 12.0 | 0.00 | 0.00 | 0.00 | 69 | 1015.2 |
| 20260903163506 | 83 | 79 | 2.0 | 8.0 | 0.00 | 0.00 | 0.00 | 68 | 1015.2 |
| 20260903163007 | 83 | 310 | 2.0 | 11.0 | 0.00 | 0.00 | 0.00 | 68 | 1015.2 |
| 20260903162007 | 83 | 261 | 3.0 | 11.0 | 0.00 | 0.00 | 0.00 | 68 | 1015.3 |
| 20260903161503 | 84 | 44 | 3.0 | 11.0 | 0.00 | 0.00 | 0.00 | 67 | 1015.2 |
| 20260903161007 | 84 | 93 | 2.0 | 11.0 | 0.00 | 0.00 | 0.00 | 69 | 1015.0 |
| 20260903160502 | 85 | 286 | 3.0 | 13.0 | 0.00 | 0.00 | 0.00 | 68 | 1014.9 |
| 20260903160008 | 85 | 242 | 2.0 | 13.0 | 0.00 | 0.00 | 0.00 | 68 | 1014.7 |
| 20260903155505 | 86 | 54 | 1.0 | 4.0 | 0.00 | 0.00 | 0.00 | 68 | 1014.7 |
| 20260903155008 | 86 | 310 | 1.0 | 4.0 | 0.00 | 0.00 | 0.00 | 67 | 1014.5 |
| 20260903154505 | 87 | 283 | 1.0 | 5.0 | 0.00 | 0.00 | 0.00 | 66 | 1014.1 |
| 20260903154004 | 87 | 283 | 1.0 | 7.0 | 0.00 | 0.00 | 0.00 | 65 | 1014.0 |
| 20260903153503 | 88 | 284 | 1.0 | 5.0 | 0.00 | 0.00 | 0.00 | 65 | 1014.0 |
| 20260903153004 | 87 | 281 | 1.0 | 5.0 | 0.00 | 0.00 | 0.00 | 67 | 1013.8 |
| 20260903152505 | 87 | 280 | 1.0 | 3.0 | 0.00 | 0.00 | 0.00 | 66 | 1013.9 |
| 20260903152008 | 87 | 281 | 1.0 | 3.0 | 0.00 | 0.00 | 0.00 | 68 | 1013.8 |
| 20260903151506 | 86 | 282 | 0.0 | 2.0 | 0.00 | 0.00 | 0.00 | 68 | 1013.8 |
| 20260903151004 | 86 | 286 | 1.0 | 3.0 | 0.00 | 0.00 | 0.00 | 68 | 1013.8 |
| 20260903150507 | 86 | 284 | 1.0 | 4.0 | 0.00 | 0.00 | 0.00 | 69 | 1013.8 |
| 20260903145506 | 85 | 238 | 0.0 | 3.0 | 0.00 | 0.00 | 0.00 | 69 | 1013.8 |
| 20260903145006 | 85 | 237 | 0.0 | 3.0 | 0.00 | 0.00 | 0.00 | 70 | 1013.8 |
| 20260903144506 | 84 | 234 | 0.0 | 3.0 | 0.00 | 0.00 | 0.00 | 70 | 1013.8 |
| 20260903144007 | 84 | 234 | 0.0 | 3.0 | 0.00 | 0.00 | 0.00 | 71 | 1013.8 |
| 20260903143505 | 84 | 235 | 0.0 | 3.0 | 0.00 | 0.00 | 0.00 | 71 | 1013.8 |
| 20260903143004 | 84 | 233 | 0.0 | 2.0 | 0.00 | 0.00 | 0.00 | 71 | 1013.8 |
| 20260903142502 | 83 | 200 | 0.0 | 3.0 | 0.00 | 0.00 | 0.00 | 71 | 1013.7 |
| 20260903142003 | 83 | 254 | 0.0 | 3.0 | 0.00 | 0.00 | 0.00 | 72 | 1013.7 |
| 20260903141504 | 83 | 254 | 0.0 | 3.0 | 0.00 | 0.00 | 0.00 | 72 | 1013.7 |
| 20260903141003 | 83 | 260 | 0.0 | 3.0 | 0.00 | 0.00 | 0.00 | 73 | 1013.6 |
| 20260903140505 | 82 | 247 | 0.0 | 5.0 | 0.00 | 0.00 | 0.00 | 73 | 1013.7 |
| 20260903140009 | 82 | 294 | 0.0 | 5.0 | 0.00 | 0.00 | 0.00 | 74 | 1013.6 |
| 20260903135505 | 81 | 234 | 0.0 | 1.0 | 0.00 | 0.00 | 0.00 | 75 | 1013.6 |
| 20260903134502 | 81 | 267 | 0.0 | 4.0 | 0.00 | 0.00 | 0.00 | 75 | 1013.7 |
| 20260903134005 | 81 | 244 | 0.0 | 4.0 | 0.00 | 0.00 | 0.00 | 75 | 1013.7 |
| 20260903133503 | 80 | 260 | 0.0 | 3.0 | 0.00 | 0.00 | 0.00 | 76 | 1013.9 |
| 20260903133004 | 80 | 261 | 0.0 | 1.0 | 0.00 | 0.00 | 0.00 | 77 | 1013.9 |
| 20260903132504 | 80 | 261 | 0.0 | 1.0 | 0.00 | 0.00 | 0.00 | 77 | 1013.9 |
| 20260903131505 | 79 | 261 | 0.0 | 0.0 | 0.00 | 0.00 | 0.00 | 78 | 1013.9 |
| 20260903131004 | 79 | 261 | 0.0 | 0.0 | 0.00 | 0.00 | 0.00 | 79 | 1013.9 |
| 20260903130503 | 79 | 261 | 0.0 | 0.0 | 0.00 | 0.00 | 0.00 | 79 | 1013.8 |
| 20260903125503 | 78 | 257 | 0.0 | 2.0 | 0.00 | 0.00 | 0.00 | 80 | 1013.9 |
| 20260903125004 | 78 | 258 | 0.0 | 2.0 | 0.00 | 0.00 | 0.00 | 80 | 1013.9 |
| 20260903124004 | 78 | 267 | 0.0 | 1.0 | 0.00 | 0.00 | 0.00 | 81 | 1013.9 |
| 20260903123503 | 78 | 267 | 0.0 | 0.0 | 0.00 | 0.00 | 0.00 | 81 | 1013.9 |
| 20260903123005 | 78 | 267 | 0.0 | 0.0 | 0.00 | 0.00 | 0.00 | 81 | 1013.9 |
| 20260903122503 | 77 | 267 | 0.0 | 0.0 | 0.00 | 0.00 | 0.00 | 81 | 1014.0 |
| 20260903122006 | 77 | 267 | 0.0 | 0.0 | 0.00 | 0.00 | 0.00 | 81 | 1013.9 |
| 20260903121502 | 77 | 267 | 0.0 | 0.0 | 0.00 | 0.00 | 0.00 | 81 | 1013.9 |
| 20260903121004 | 77 | 267 | 0.0 | 0.0 | 0.00 | 0.00 | 0.00 | 81 | 1013.9 |
| 20260903120503 | 77 | 267 | 0.0 | 0.0 | 0.00 | 0.00 | 0.00 | 81 | 1013.9 |
| 20260903120007 | 77 | 267 | 0.0 | 0.0 | 0.00 | 0.00 | 0.00 | 81 | 1014.0 |
| 20260903115502 | 77 | 267 | 0.0 | 1.0 | 0.00 | 0.00 | 0.00 | 81 | 1013.9 |
| 20260903115008 | 77 | 267 | 0.0 | 1.0 | 0.00 | 0.00 | 0.00 | 81 | 1013.9 |
| 20260903114504 | 77 | 267 | 0.0 | 0.0 | 0.00 | 0.00 | 0.00 | 81 | 1013.9 |
| 20260903114004 | 77 | 267 | 0.0 | 0.0 | 0.00 | 0.00 | 0.00 | 81 | 1013.9 |
| 20260903113003 | 77 | 267 | 0.0 | 0.0 | 0.00 | 0.00 | 0.00 | 80 | 1013.8 |
| 20260903112003 | 78 | 267 | 0.0 | 1.0 | 0.00 | 0.00 | 0.00 | 81 | 1013.7 |
| 20260903111505 | 78 | 267 | 0.0 | 0.0 | 0.00 | 0.00 | 0.00 | 81 | 1013.7 |
| 20260903111004 | 78 | 267 | 0.0 | 0.0 | 0.00 | 0.00 | 0.00 | 81 | 1013.8 |
| 20260903110007 | 78 | 267 | 0.0 | 1.0 | 0.00 | 0.00 | 0.00 | 81 | 1013.7 |
| 20260903105503 | 78 | 267 | 0.0 | 0.0 | 0.00 | 0.00 | 0.00 | 81 | 1013.8 |
| 20260903105006 | 78 | 267 | 0.0 | 0.0 | 0.00 | 0.00 | 0.00 | 81 | 1013.8 |
| 20260903104503 | 78 | 267 | 0.0 | 0.0 | 0.00 | 0.00 | 0.00 | 81 | 1013.8 |
| 20260903104005 | 78 | 267 | 0.0 | 0.0 | 0.00 | 0.00 | 0.00 | 81 | 1013.7 |
| 20260903103503 | 78 | 267 | 0.0 | 2.0 | 0.00 | 0.00 | 0.00 | 81 | 1013.7 |
| 20260903103004 | 78 | 267 | 0.0 | 2.0 | 0.00 | 0.00 | 0.00 | 81 | 1013.8 |
| 20260903102503 | 78 | 262 | 0.0 | 1.0 | 0.00 | 0.00 | 0.00 | 81 | 1013.7 |
| 20260903102005 | 78 | 255 | 0.0 | 4.0 | 0.00 | 0.00 | 0.00 | 81 | 1013.7 |
| 20260903101506 | 78 | 254 | 0.0 | 4.0 | 0.00 | 0.00 | 0.00 | 82 | 1013.7 |
| 20260903101003 | 78 | 260 | 0.0 | 1.0 | 0.00 | 0.00 | 0.00 | 82 | 1013.7 |
| 20260903100006 | 78 | 261 | 0.0 | 1.0 | 0.00 | 0.00 | 0.00 | 82 | 1013.8 |
| 20260903094502 | 77 | 261 | 0.0 | 0.0 | 0.00 | 0.00 | 0.00 | 83 | 1013.7 |
| 20260903094003 | 78 | 261 | 0.0 | 0.0 | 0.00 | 0.00 | 0.00 | 83 | 1013.6 |
| 20260903093004 | 78 | 261 | 0.0 | 0.0 | 0.00 | 0.00 | 0.00 | 83 | 1013.6 |
| 20260903092503 | 78 | 261 | 0.0 | 0.0 | 0.00 | 0.00 | 0.00 | 83 | 1013.6 |
| 20260903091503 | 78 | 261 | 0.0 | 0.0 | 0.00 | 0.00 | 0.00 | 83 | 1013.5 |
| 20260903091003 | 78 | 261 | 0.0 | 0.0 | 0.00 | 0.00 | 0.00 | 83 | 1013.6 |
| 20260903090501 | 78 | 261 | 0.0 | 0.0 | 0.00 | 0.00 | 0.00 | 83 | 1013.7 |
| 20260903090006 | 78 | 261 | 0.0 | 0.0 | 0.00 | 0.00 | 0.00 | 83 | 1013.6 |
| 20260903085502 | 78 | 261 | 0.0 | 0.0 | 0.00 | 0.00 | 0.00 | 84 | 1013.6 |
| 20260903085004 | 78 | 261 | 0.0 | 0.0 | 0.00 | 0.00 | 0.00 | 84 | 1013.5 |
| 20260903084502 | 78 | 261 | 0.0 | 0.0 | 0.00 | 0.00 | 0.00 | 84 | 1013.5 |
| 20260903084004 | 78 | 261 | 0.0 | 0.0 | 0.00 | 0.00 | 0.00 | 84 | 1013.5 |
| 20260903083503 | 78 | 261 | 0.0 | 0.0 | 0.00 | 0.00 | 0.00 | 84 | 1013.5 |
| 20260903082502 | 78 | 261 | 0.0 | 0.0 | 0.00 | 0.00 | 0.00 | 85 | 1013.5 |
| 20260903082003 | 78 | 261 | 0.0 | 0.0 | 0.00 | 0.00 | 0.00 | 85 | 1013.6 |
| 20260903081502 | 78 | 261 | 0.0 | 0.0 | 0.00 | 0.00 | 0.00 | 85 | 1013.6 |
| 20260903081003 | 78 | 261 | 0.0 | 0.0 | 0.00 | 0.00 | 0.00 | 85 | 1013.6 |
| 20260903080502 | 78 | 261 | 0.0 | 0.0 | 0.00 | 0.00 | 0.00 | 85 | 1013.6 |
| 20260903080005 | 78 | 261 | 0.0 | 0.0 | 0.00 | 0.00 | 0.00 | 85 | 1013.5 |
| 20260903075502 | 78 | 261 | 0.0 | 0.0 | 0.00 | 0.00 | 0.00 | 85 | 1013.4 |
| 20260903073502 | 78 | 261 | 0.0 | 0.0 | 0.00 | 0.00 | 0.00 | 84 | 1013.4 |
| 20260903072003 | 78 | 261 | 0.0 | 0.0 | 0.00 | 0.00 | 0.00 | 84 | 1013.5 |
| 20260903071502 | 79 | 261 | 0.0 | 0.0 | 0.00 | 0.00 | 0.00 | 83 | 1013.4 |
| 20260903071002 | 79 | 261 | 0.0 | 0.0 | 0.00 | 0.00 | 0.00 | 83 | 1013.5 |
| 20260903070502 | 79 | 261 | 0.0 | 0.0 | 0.00 | 0.00 | 0.00 | 83 | 1013.6 |
| 20260903070006 | 79 | 261 | 0.0 | 0.0 | 0.00 | 0.00 | 0.00 | 82 | 1013.6 |
| 20260903065505 | 79 | 261 | 0.0 | 0.0 | 0.00 | 0.00 | 0.00 | 82 | 1013.6 |
| 20260903065003 | 79 | 261 | 0.0 | 0.0 | 0.00 | 0.00 | 0.00 | 82 | 1013.5 |
| 20260903064505 | 79 | 261 | 0.0 | 0.0 | 0.00 | 0.00 | 0.00 | 81 | 1013.6 |
| 20260903064007 | 80 | 261 | 0.0 | 0.0 | 0.00 | 0.00 | 0.00 | 81 | 1013.6 |
| 20260903062502 | 80 | 261 | 0.0 | 0.0 | 0.00 | 0.00 | 0.00 | 80 | 1013.7 |
| 20260903062003 | 80 | 261 | 0.0 | 0.0 | 0.00 | 0.00 | 0.00 | 80 | 1013.7 |
| 20260903061502 | 80 | 261 | 0.0 | 0.0 | 0.00 | 0.00 | 0.00 | 80 | 1013.6 |
| 20260903061003 | 80 | 261 | 0.0 | 0.0 | 0.00 | 0.00 | 0.00 | 80 | 1013.6 |
| 20260903060008 | 81 | 261 | 0.0 | 1.0 | 0.00 | 0.00 | 0.00 | 79 | 1013.7 |
| 20260903055507 | 80 | 264 | 0.0 | 0.0 | 0.00 | 0.00 | 0.00 | 80 | 1013.7 |
| 20260903055041 | 80 | 264 | 0.0 | 0.0 | 0.00 | 0.00 | 0.00 | 80 | 1013.7 |
| 20260903054505 | 80 | 264 | 0.0 | 0.0 | 0.00 | 0.00 | 0.00 | 79 | 1013.7 |
| 20260903053505 | 81 | 264 | 0.0 | 0.0 | 0.00 | 0.00 | 0.00 | 79 | 1013.6 |
| 20260903053009 | 81 | 264 | 0.0 | 0.0 | 0.00 | 0.00 | 0.00 | 79 | 1013.6 |
| 20260903052508 | 81 | 264 | 0.0 | 0.0 | 0.00 | 0.00 | 0.00 | 79 | 1013.6 |
| 20260903052008 | 81 | 264 | 0.0 | 0.0 | 0.00 | 0.00 | 0.00 | 78 | 1013.5 |
| 20260903051507 | 81 | 264 | 0.0 | 0.0 | 0.00 | 0.00 | 0.00 | 78 | 1013.6 |
| 20260903051006 | 81 | 264 | 0.0 | 0.0 | 0.00 | 0.00 | 0.00 | 78 | 1013.5 |
| 20260903050504 | 81 | 264 | 0.0 | 0.0 | 0.00 | 0.00 | 0.00 | 78 | 1013.5 |
| 20260903050007 | 81 | 264 | 0.0 | 0.0 | 0.00 | 0.00 | 0.00 | 77 | 1013.5 |
| 20260903045504 | 81 | 264 | 0.0 | 0.0 | 0.00 | 0.00 | 0.00 | 77 | 1013.4 |
| 20260903044503 | 81 | 264 | 0.0 | 0.0 | 0.00 | 0.00 | 0.00 | 78 | 1013.3 |
| 20260903044005 | 81 | 264 | 0.0 | 0.0 | 0.00 | 0.00 | 0.00 | 78 | 1013.3 |
| 20260903043503 | 81 | 264 | 0.0 | 0.0 | 0.00 | 0.00 | 0.00 | 78 | 1013.3 |
| 20260903043006 | 82 | 264 | 0.0 | 0.0 | 0.00 | 0.00 | 0.00 | 78 | 1013.4 |
| 20260903042504 | 82 | 264 | 0.0 | 0.0 | 0.00 | 0.00 | 0.00 | 77 | 1013.4 |
| 20260903042005 | 82 | 264 | 0.0 | 0.0 | 0.00 | 0.00 | 0.00 | 77 | 1013.5 |
| 20260903041504 | 82 | 264 | 0.0 | 0.0 | 0.00 | 0.00 | 0.00 | 77 | 1013.4 |
| 20260903040503 | 82 | 264 | 0.0 | 0.0 | 0.00 | 0.00 | 0.00 | 77 | 1013.4 |
| 20260903040009 | 83 | 264 | 0.0 | 0.0 | 0.00 | 0.00 | 0.00 | 76 | 1013.4 |
| 20260903035504 | 83 | 264 | 0.0 | 0.0 | 0.00 | 0.00 | 0.00 | 75 | 1013.4 |
| 20260903035005 | 83 | 264 | 0.0 | 0.0 | 0.00 | 0.00 | 0.00 | 75 | 1013.4 |
| 20260903034503 | 83 | 264 | 0.0 | 0.0 | 0.00 | 0.00 | 0.00 | 75 | 1013.4 |
| 20260903034005 | 83 | 264 | 0.0 | 2.0 | 0.00 | 0.00 | 0.00 | 74 | 1013.4 |
| 20260903033506 | 83 | 264 | 0.0 | 2.0 | 0.00 | 0.00 | 0.00 | 74 | 1013.4 |
| 20260903033007 | 84 | 237 | 0.0 | 2.0 | 0.00 | 0.00 | 0.00 | 74 | 1013.3 |
| 20260903032503 | 84 | 237 | 0.0 | 3.0 | 0.00 | 0.00 | 0.00 | 74 | 1013.3 |
| 20260903032008 | 84 | 259 | 0.0 | 3.0 | 0.00 | 0.00 | 0.00 | 74 | 1013.3 |
| 20260903031506 | 84 | 236 | 0.0 | 2.0 | 0.00 | 0.00 | 0.00 | 74 | 1013.2 |
| 20260903031004 | 84 | 234 | 0.0 | 1.0 | 0.00 | 0.00 | 0.00 | 75 | 1013.2 |
| 20260903030503 | 84 | 234 | 0.0 | 0.0 | 0.00 | 0.00 | 0.00 | 74 | 1013.1 |
| 20260903025504 | 84 | 234 | 0.0 | 0.0 | 0.00 | 0.00 | 0.00 | 74 | 1013.2 |
| 20260903025006 | 84 | 234 | 0.0 | 0.0 | 0.00 | 0.00 | 0.00 | 74 | 1013.3 |
| 20260903024005 | 85 | 234 | 0.0 | 0.0 | 0.00 | 0.00 | 0.00 | 73 | 1013.4 |
| 20260903023504 | 85 | 234 | 0.0 | 2.0 | 0.00 | 0.00 | 0.00 | 73 | 1013.3 |
| 20260903023005 | 85 | 234 | 0.0 | 2.0 | 0.00 | 0.00 | 0.00 | 73 | 1013.3 |
| 20260903022504 | 85 | 239 | 0.0 | 1.0 | 0.00 | 0.00 | 0.00 | 72 | 1013.3 |
| 20260903022006 | 85 | 239 | 0.0 | 1.0 | 0.00 | 0.00 | 0.00 | 72 | 1013.2 |
| 20260903021504 | 85 | 239 | 0.0 | 1.0 | 0.00 | 0.00 | 0.00 | 72 | 1013.1 |
| 20260903021007 | 85 | 239 | 0.0 | 1.0 | 0.00 | 0.00 | 0.00 | 72 | 1013.0 |
| 20260903020504 | 85 | 239 | 0.0 | 1.0 | 0.00 | 0.00 | 0.00 | 72 | 1013.1 |
| 20260903020007 | 85 | 238 | 0.0 | 0.0 | 0.00 | 0.00 | 0.00 | 72 | 1012.9 |
| 20260903015504 | 86 | 238 | 0.0 | 1.0 | 0.00 | 0.00 | 0.00 | 71 | 1013.0 |
| 20260903015006 | 86 | 238 | 0.0 | 3.0 | 0.00 | 0.00 | 0.00 | 71 | 1013.0 |
| 20260903014504 | 86 | 239 | 0.0 | 3.0 | 0.00 | 0.00 | 0.00 | 71 | 1013.0 |
| 20260903014004 | 86 | 259 | 0.0 | 3.0 | 0.00 | 0.00 | 0.00 | 70 | 1013.0 |
| 20260903013504 | 86 | 259 | 0.0 | 3.0 | 0.00 | 0.00 | 0.00 | 70 | 1012.8 |
| 20260903013005 | 86 | 286 | 0.0 | 2.0 | 0.00 | 0.00 | 0.00 | 70 | 1012.9 |
| 20260903012505 | 86 | 294 | 0.0 | 2.0 | 0.00 | 0.00 | 0.00 | 70 | 1012.8 |
| 20260903012006 | 87 | 294 | 0.0 | 3.0 | 0.00 | 0.00 | 0.00 | 69 | 1012.6 |
| 20260903011005 | 87 | 253 | 0.0 | 1.0 | 0.00 | 0.00 | 0.00 | 68 | 1012.6 |
| 20260903010504 | 87 | 253 | 0.0 | 1.0 | 0.00 | 0.00 | 0.00 | 68 | 1012.5 |
| 20260903010008 | 87 | 253 | 0.0 | 1.0 | 0.00 | 0.00 | 0.00 | 68 | 1012.5 |
| 20260903005005 | 87 | 252 | 0.0 | 2.0 | 0.00 | 0.00 | 0.00 | 68 | 1012.4 |
| 20260903004005 | 87 | 259 | 0.0 | 1.0 | 0.00 | 0.00 | 0.00 | 68 | 1012.5 |
| 20260903003006 | 88 | 259 | 0.0 | 0.0 | 0.00 | 0.00 | 0.00 | 67 | 1012.5 |
| 20260903002503 | 88 | 259 | 0.0 | 1.0 | 0.00 | 0.00 | 0.00 | 67 | 1012.6 |
| 20260903001503 | 88 | 259 | 0.0 | 3.0 | 0.00 | 0.00 | 0.00 | 65 | 1012.5 |
| 20260903001005 | 89 | 288 | 0.0 | 3.0 | 0.00 | 0.00 | 0.00 | 65 | 1012.6 |
| 20260903000504 | 89 | 285 | 0.0 | 0.0 | 0.00 | 0.00 | 0.00 | 64 | 1012.6 |
| 20260903000007 | 89 | 285 | 0.0 | 2.0 | 0.00 | 0.00 | 0.00 | 63 | 1012.7 |
| 20260902235503 | 89 | 285 | 0.0 | 2.0 | 0.00 | 0.00 | 0.00 | 62 | 1012.8 |
| 20260902235004 | 90 | 251 | 0.0 | 2.0 | 0.00 | 0.00 | 0.00 | 64 | 1012.9 |
| 20260902234503 | 90 | 252 | 0.0 | 1.0 | 0.00 | 0.00 | 0.00 | 63 | 1012.8 |
| 20260902233502 | 90 | 252 | 1.0 | 7.0 | 0.00 | 0.00 | 0.00 | 62 | 1012.8 |
| 20260902232503 | 91 | 302 | 1.0 | 3.0 | 0.00 | 0.00 | 0.00 | 60 | 1012.7 |
| 20260902232004 | 91 | 249 | 1.0 | 3.0 | 0.00 | 0.00 | 0.00 | 61 | 1012.7 |
| 20260902231004 | 91 | 254 | 0.0 | 2.0 | 0.00 | 0.00 | 0.00 | 58 | 1012.7 |
| 20260902230503 | 91 | 252 | 1.0 | 6.0 | 0.00 | 0.00 | 0.00 | 58 | 1012.7 |
| 20260902225506 | 92 | 250 | 0.0 | 4.0 | 0.00 | 0.00 | 0.00 | 58 | 1012.7 |
| 20260902225005 | 92 | 250 | 1.0 | 4.0 | 0.00 | 0.00 | 0.00 | 57 | 1012.8 |
| 20260902224005 | 92 | 306 | 0.0 | 3.0 | 0.00 | 0.00 | 0.00 | 56 | 1013.0 |
| 20260902223503 | 92 | 207 | 1.0 | 4.0 | 0.00 | 0.00 | 0.00 | 56 | 1013.0 |
| 20260902222503 | 93 | 276 | 1.0 | 4.0 | 0.00 | 0.00 | 0.00 | 54 | 1012.9 |
| 20260902222005 | 94 | 259 | 1.0 | 4.0 | 0.00 | 0.00 | 0.00 | 53 | 1013.0 |
| 20260902221503 | 95 | 261 | 1.0 | 4.0 | 0.00 | 0.00 | 0.00 | 52 | 1013.1 |
| 20260902221004 | 95 | 259 | 1.0 | 4.0 | 0.00 | 0.00 | 0.00 | 54 | 1013.1 |
| 20260902220503 | 95 | 235 | 1.0 | 6.0 | 0.00 | 0.00 | 0.00 | 52 | 1013.0 |
| 20260902215503 | 96 | 248 | 1.0 | 7.0 | 0.00 | 0.00 | 0.00 | 51 | 1013.0 |
| 20260902215006 | 96 | 187 | 0.0 | 3.0 | 0.00 | 0.00 | 0.00 | 51 | 1013.0 |
| 20260902214506 | 96 | 130 | 1.0 | 4.0 | 0.00 | 0.00 | 0.00 | 52 | 1013.0 |
| 20260902214005 | 96 | 264 | 1.0 | 4.0 | 0.00 | 0.00 | 0.00 | 51 | 1013.1 |
| 20260902213503 | 96 | 277 | 1.0 | 4.0 | 0.00 | 0.00 | 0.00 | 50 | 1013.2 |
| 20260902212503 | 96 | 285 | 2.0 | 5.0 | 0.00 | 0.00 | 0.00 | 51 | 1013.2 |
| 20260902212007 | 96 | 283 | 1.0 | 5.0 | 0.00 | 0.00 | 0.00 | 52 | 1013.3 |
| 20260902211004 | 96 | 277 | 2.0 | 7.0 | 0.00 | 0.00 | 0.00 | 51 | 1013.3 |
| 20260902210503 | 96 | 264 | 1.0 | 7.0 | 0.00 | 0.00 | 0.00 | 50 | 1013.3 |
| 20260902210011 | 96 | 242 | 1.0 | 4.0 | 0.00 | 0.00 | 0.00 | 48 | 1013.3 |
| 20260902205007 | 96 | 198 | 1.0 | 6.0 | 0.00 | 0.00 | 0.00 | 54 | 1013.2 |
| 20260902204503 | 95 | 170 | 1.0 | 6.0 | 0.00 | 0.00 | 0.00 | 51 | 1013.2 |
| 20260902204005 | 95 | 248 | 1.0 | 6.0 | 0.00 | 0.00 | 0.00 | 51 | 1013.2 |
| 20260902203504 | 95 | 264 | 1.0 | 4.0 | 0.00 | 0.00 | 0.00 | 51 | 1013.2 |
| 20260902203004 | 94 | 290 | 1.0 | 6.0 | 0.00 | 0.00 | 0.00 | 52 | 1013.2 |
| 20260902202504 | 95 | 259 | 1.0 | 6.0 | 0.00 | 0.00 | 0.00 | 51 | 1013.2 |
| 20260902201503 | 95 | 272 | 2.0 | 6.0 | 0.00 | 0.00 | 0.00 | 52 | 1013.4 |
| 20260902201005 | 94 | 255 | 2.0 | 7.0 | 0.00 | 0.00 | 0.00 | 50 | 1013.4 |
| 20260902200505 | 94 | 272 | 1.0 | 7.0 | 0.00 | 0.00 | 0.00 | 52 | 1013.5 |
| 20260902200007 | 94 | 161 | 1.0 | 7.0 | 0.00 | 0.00 | 0.00 | 52 | 1013.6 |
| 20260902195503 | 94 | 252 | 1.0 | 5.0 | 0.00 | 0.00 | 0.00 | 51 | 1013.6 |
| 20260902195005 | 95 | 278 | 1.0 | 5.0 | 0.00 | 0.00 | 0.00 | 50 | 1013.6 |
| 20260902194505 | 95 | 277 | 1.0 | 6.0 | 0.00 | 0.00 | 0.00 | 49 | 1013.6 |
| 20260902194006 | 95 | 286 | 1.0 | 6.0 | 0.00 | 0.00 | 0.00 | 49 | 1013.6 |
| 20260902193507 | 95 | 245 | 1.0 | 7.0 | 0.00 | 0.00 | 0.00 | 51 | 1013.7 |
| 20260902193004 | 95 | 246 | 2.0 | 7.0 | 0.00 | 0.00 | 0.00 | 51 | 1013.7 |
| 20260902192503 | 95 | 275 | 2.0 | 7.0 | 0.00 | 0.00 | 0.00 | 51 | 1013.6 |
| 20260902192004 | 94 | 269 | 2.0 | 7.0 | 0.00 | 0.00 | 0.00 | 51 | 1013.7 |
| 20260902191503 | 94 | 281 | 1.0 | 7.0 | 0.00 | 0.00 | 0.00 | 54 | 1013.8 |
| 20260902190505 | 94 | 241 | 1.0 | 4.0 | 0.00 | 0.00 | 0.00 | 54 | 1013.8 |
| 20260902190004 | 95 | 284 | 0.0 | 3.0 | 0.00 | 0.00 | 0.00 | 54 | 1013.8 |
| 20260902185504 | 94 | 264 | 1.0 | 3.0 | 0.00 | 0.00 | 0.00 | 52 | 1013.9 |
| 20260902185005 | 94 | 274 | 1.0 | 4.0 | 0.00 | 0.00 | 0.00 | 56 | 1013.8 |
| 20260902184505 | 94 | 264 | 1.0 | 4.0 | 0.00 | 0.00 | 0.00 | 53 | 1013.9 |
| 20260902184004 | 94 | 263 | 1.0 | 5.0 | 0.00 | 0.00 | 0.00 | 53 | 1013.9 |
| 20260902183505 | 94 | 273 | 1.0 | 5.0 | 0.00 | 0.00 | 0.00 | 53 | 1013.8 |
| 20260902183008 | 93 | 242 | 1.0 | 3.0 | 0.00 | 0.00 | 0.00 | 55 | 1013.8 |
| 20260902182503 | 93 | 213 | 1.0 | 6.0 | 0.00 | 0.00 | 0.00 | 53 | 1013.9 |
| 20260902181503 | 92 | 224 | 1.0 | 4.0 | 0.00 | 0.00 | 0.00 | 53 | 1014.0 |
| 20260902181004 | 92 | 269 | 1.0 | 5.0 | 0.00 | 0.00 | 0.00 | 55 | 1014.0 |
| 20260902180505 | 92 | 224 | 1.0 | 5.0 | 0.00 | 0.00 | 0.00 | 53 | 1014.0 |
| 20260902180008 | 92 | 286 | 1.0 | 5.0 | 0.00 | 0.00 | 0.00 | 56 | 1014.1 |
| 20260902175504 | 92 | 246 | 1.0 | 6.0 | 0.00 | 0.00 | 0.00 | 56 | 1014.2 |